Regional Weather Roundup
Issued by NWS State College, PA

Home | Current Version | Previous Version | Text Only | Print | Product List | Glossary On
Versions: 1 2 3 4 5 6 7 8 9 10 11 12 13 14 15 16 17 18 19 20 21 22 23 24 25 26 27 28 29 30 31 32 33 34 35 36 37 38 39 40 41 42 43 44 45 46 47 48 49 50
000
ASUS41 KCTP 291410
RWRCTP

REGIONAL WEATHER ROUNDUP
NATIONAL WEATHER SERVICE STATE COLLEGE PA
1000 AM EDT FRI AUG 29 2014

Note: "fair" indicates few or no clouds below 12,000 feet with no
significant weather and/or obstructions to visibility.

* = STATION THAT DOES NOT REPORT PRECIPITATION /E.G. RAIN...SNOW...ETC/
    THUNDER OR FOG.

PAZ002>004-007>009-013>016-020>023-029>032-291500-
WESTERN PENNSYLVANIA

CITY           SKY/WX    TMP DP  RH WIND       PRES   REMARKS
ERIE           PTSUNNY   66  49  54 S8        30.19F
MEADVILLE      SUNNY     62  49  62 VRB5      30.21R
FRANKLIN*      SUNNY     61  48  63 E7        30.22S
NEW CASTLE     FAIR      62  53  72 CALM      30.20S
BEAVER COUNTY  SUNNY     61  52  72 SE3       30.18F
BUTLER*        SUNNY     63  52  67 E7        30.21R
PITTSBURGH INT MOSUNNY   61  54  77 SE6       30.18F
PITTSBURGH     SUNNY     62  52  69 SE6       30.17F
INDIANA*       SUNNY     64  50  59 SE7       30.24F
LATROBE        MOSUNNY   64  54  68 SE6       30.20F
WASHINGTON CO* SUNNY     63  55  77 E3        30.18S
$$

PAZ004>006-010>012-017>019-024>028-033>037-041-042-045-046-049>053-291500-
CENTRAL PENNSYLVANIA

CITY           SKY/WX    TMP DP  RH WIND       PRES   REMARKS
BRADFORD       PTSUNNY   59  50  72 SE5       30.24R
DUBOIS         NOT AVBL
CLEARFIELD     MOSUNNY   56  51  84 NE5       30.24S
JOHNSTOWN      SUNNY     61  47  59 SE9       30.22S
ALTOONA        SUNNY     62  54  74 CALM      30.24S
STATE COLLEGE  SUNNY     55  52  88 CALM      30.25R
WILLIAMSPORT   MOSUNNY   62  52  69 W6        30.22S
SELINSGROVE    MOSUNNY   64  56  75 CALM      30.23S
FT INDIANTOWN  MOSUNNY   67  52  59 NE3       30.22R
CAPITAL CITY   SUNNY     66  53  63 VRB3      30.22R
HARRISBURG     PTSUNNY   66  53  63 W3        30.21S
YORK           SUNNY     65  53  65 CALM      30.22R
$$

PAZ038>040-043-044-047-048-054-055-060>062-067>071-291500-
EASTERN PENNSYLVANIA

CITY           SKY/WX    TMP DP  RH WIND       PRES   REMARKS
SCRANTON       SUNNY     61  50  67 CALM      30.23S
MOUNT POCONO   SUNNY     62  49  62 N8        30.23R
ALLENTOWN      SUNNY     66  53  63 N5        30.21S
QUAKERTOWN*    MOSUNNY   68  54  60 MISG      30.21F
READING        MOSUNNY   67  52  58 CALM      30.20S
LANCASTER      MOSUNNY   65  51  60 CALM      30.22R
COATESVILLE    MOSUNNY   64  57  77 NE3       30.22R
POTTSTOWN      MOSUNNY   68  53  58 VRB5      30.22R
BLUE BELL      MOSUNNY   70  54  56 NE3       30.19F
DOYLESTOWN     MOSUNNY   68  53  58 VRB6      30.20R
WILLOW GROVE   NOT AVBL
NORTH PHILA    MOSUNNY   71  50  47 NE8       30.21R
PHILADELPHIA   PTSUNNY   72  52  49 NE7       30.19S
$$



USA.gov is the U.S. government's official web portal to all federal, state and local government web resources and services.